Lid_Strength_Index
5 5 4 4 4 4 4 4 4 4 3 3 3 3 2 2 2 4 7 5 3 1 2 4 5 6 6 7 6 7 12 13 12 12 11 9 10 7 7 9 8 7 8 6 5
4 5 5 5 4 4 4 4 4 4 4 3 3 3 3 2 4 7 4 3 2 2 5 6 7 6 8 8 8 10 12 12 10 10 10 9 9 9 9 9 9 7 6 6 6
4 4 5 5 5 4 4 4 4 4 4 4 3 3 3 3 6 8 3 3 3 3 5 5 6 7 8 8 9 10 12 11 10 8 9 9 9 8 9 10 9 10 8 7 7
4 4 4 4 5 5 4 4 4 4 4 4 3 3 2 4 10 6 3 3 2 4 6 6 7 8 9 10 9 11 10 10 9 8 9 9 8 9 9 9 8 8 7 7 8
3 3 3 4 4 4 5 4 4 4 4 4 4 3 4 8 8 5 3 3 5 5 7 8 9 9 10 10 10 11 11 9 9 9 9 8 9 10 9 9 8 7 7 8 8
5 2 3 3 3 4 4 5 5 4 4 4 4 3 5 11 6 5 5 5 5 6 7 7 8 8 10 10 10 10 10 10 9 9 9 9 10 10 9 8 8 8 9 8 8
5 3 3 5 4 4 3 4 5 5 4 5 4 5 7 9 6 6 5 5 5 6 7 7 7 8 9 11 9 10 12 11 10 9 10 9 11 11 9 8 8 9 9 9 8
4 4 3 4 5 5 5 3 4 5 5 5 4 5 9 6 6 6 6 6 5 5 6 6 6 8 9 9 10 12 12 14 10 10 9 11 14 9 9 9 10 10 10 10 9
4 5 5 4 5 5 5 5 5 4 5 5 6 7 10 6 8 7 6 8 6 5 6 7 7 9 10 13 14 13 16 14 13 10 10 11 13 9 9 9 10 11 11 10 9
4 5 5 5 5 5 5 6 5 6 5 5 7 10 10 10 8 7 6 6 7 7 7 8 10 12 13 14 18 16 16 14 15 11 11 12 12 10 9 9 11 11 11 10 10
4 4 5 5 5 5 6 8 9 10 8 9 10 10 10 8 7 8 7 7 7 9 12 10 13 15 13 13 13 14 15 15 13 11 13 13 12 11 9 10 11 11 12 11 10
3 3 4 4 5 5 7 10 11 11 14 11 10 10 9 8 11 9 7 10 11 13 11 12 15 12 12 12 13 14 16 16 13 12 13 13 13 11 10 10 10 11 11 11 10
3 3 3 4 6 7 9 10 7 8 14 13 11 11 10 9 11 11 9 10 12 13 13 15 13 12 13 14 15 15 16 17 16 13 12 13 14 13 11 10 10 10 9 9 10
3 3 4 5 8 8 11 8 7 7 14 14 14 11 10 10 13 9 9 10 12 14 13 14 13 14 15 15 14 17 14 14 14 15 19 13 21 14 13 12 11 10 10 11 12
3 3 4 5 9 11 10 8 8 9 20 13 13 9 10 13 12 12 9 10 13 13 14 15 15 15 15 15 14 15 14 14 15 16 16 18 20 16 14 15 12 11 10 11 12
2 3 4 7 9 9 9 9 10 15 19 16 14 14 14 13 13 12 11 10 11 13 13 14 13 13 14 14 14 13 14 15 16 16 21 18 19 18 17 15 13 11 11 11 12
4 3 5 6 9 9 9 10 16 18 13 16 16 14 14 15 14 14 14 15 16 18 17 15 15 14 13 15 14 15 17 21 22 23 20 16 19 17 12 12 11 11 11 12 12
5 4 5 6 8 8 9 13 17 15 16 13 14 14 16 15 14 14 15 17 14 14 16 18 20 15 14 15 16 17 17 21 24 22 21 18 20 16 12 11 11 11 12 12 13
4 5 7 8 8 7 11 16 16 14 12 14 14 16 17 15 15 15 16 16 14 14 17 17 18 15 14 14 15 17 20 17 20 22 21 18 16 14 13 13 12 12 12 13 13
6 7 9 8 8 9 14 14 14 12 12 12 15 14 17 16 17 16 16 14 14 13 13 15 19 16 15 15 15 16 16 21 20 25 23 19 19 18 16 14 13 13 13 13 13
7 9 8 8 7 13 16 15 14 12 11 13 14 15 13 16 17 16 15 14 13 14 13 15 17 19 16 17 18 18 19 18 18 19 21 21 19 16 14 13 13 13 12 13 14
9 13 8 7 15 15 16 15 12 13 11 12 12 12 13 14 16 16 15 14 13 13 16 15 16 21 19 17 16 16 17 18 21 21 20 19 19 14 13 12 12 12 11 13 13
14 14 7 8 15 17 16 15 15 14 13 13 14 12 13 14 15 14 14 14 13 13 15 15 19 23 21 20 17 18 17 16 17 19 20 21 18 13 13 14 13 12 12 13 13
13 15 14 13 14 13 15 15 15 14 14 12 13 13 14 15 13 15 16 15 13 13 13 13 18 19 21 21 19 20 19 17 18 22 20 19 18 16 15 14 13 12 12 14 14
12 14 13 16 15 14 12 14 15 17 14 12 14 14 14 15 16 15 15 15 14 14 14 14 21 20 19 18 19 19 18 18 19 18 21 18 17 14 14 14 13 12 12 13 13
12 12 13 13 12 14 14 14 14 13 15 15 15 14 13 14 14 15 14 14 15 15 15 15 22 20 23 19 19 20 19 18 17 17 17 17 17 12 12 13 13 12 11 12 13
7 8 11 12 12 13 14 13 13 11 12 12 13 14 14 13 12 12 11 12 12 15 16 17 18 20 22 21 23 25 21 19 18 16 17 19 15 13 14 13 12 12 11 11 13